Showing default

COSMOS 44, 876

Orbit data source: Space-Track

COSMOS 44, 876 is a payload satellite owned by VNIIEM (CIS) in LEO that was launched on Fri, 28 Aug 1964 UTC via a VOSTOK 8A92M launch vehicle from the Tyuratam Missile And Space Complex (TTMTR). Payload-class satellites include a variety of spacecraft equipped with specific instruments for various scientific and technological missions. These include communications satellites like Starlink; space stations such as the ISS; scientific satellites like the Hubble; Earth observation satellites from companies like Planet Labs, Umbra, and HawkEye 360; GPS; miniature CubeSats for education and research; and military/defense satellites.

Loading next visibility...
Identifier
876, 1964-053A
Orbit
LEO
Last TLE update
23 hours ago
Origin
Manufacturer
VNIIEM
Mission
Defense Weather
Bus & Motor
METEOR, Unknown motor
Mass
~1,250 kg wet, ~1,250 kg dry
Launch date (UTC)
1964-08-28 (61 years ago)
Launch vehicle
VOSTOK 8A92M
Launch site
Tyuratam Missile And Space Complex (TTMTR)
Object type
Payload
Rocket body
Debris
Shape & HBR
Cyl + 2 Pan, 4.5 m
Radar Cross Section
5.718 m², Large (>1 m²)

Expand to show TLE details & history

TLE from 23 hours ago
0 COSMOS 44
1 00876U 64053A   25128.26500862  .00000547  00000-0  11364-3 0  9990
2 00876  65.0603  81.8814 0120455  57.2483 304.0159 14.65362759229338
Epoch: 2025-05-08T06:21Z
Definitive object data (Epoch: 2025-05-08T06:21:36.744Z)
Latitude
-0.00006°
Longitude
120.14028°
Altitude
631.091 km
Speed
7.568 km/s
True Right ascension
05h 27m 31s
True Declination
0° 00' 00"
Sunlit
Object was in daylight at TLE epoch
Visualization TLE readout
Latitude
65.0252°
Longitude
-159.53039°
Altitude
612.476 km
Speed
7.599 km/s
Apparent Right ascension
04h 16m 20s
Apparent Declination
32° 35' 47"
Sunlit
Object is in daylight
Visualization observer readout
Local Sidereal Time
13:49:26
Azimuth
329.241° NNW
Elevation
-9.918°
Doppler factor
1
Orbital elements
Apogee altitude
759.411 km
Perigee altitude
589.507 km
Semi-major axis
7,052.596 km
Eccentricity
0.0120455
Inclination
65.0603°
RAAN
81.8814°
Arg. of periapsis
57.2483°
True anomaly
302.86215°
Mean anomaly
304.0159°
Eccentric anomaly
303.43999°
Mean motion
3.66454 °/min
BSTAR
0.00011364
Orbital period
98.24 mins
Loading maneuver chart data...
Loading SW <> Apogee altitude chart data...
Loading historical data...
Loading historical data...
Loading historical data...
Loading historical data...
Loading historical data...
Loading historical data...
Loading historical data...
Other satellites on launch #53 in the year 1964 (1964-08-28 UTC)

COSMOS 44 Visibility forecast

Observer location: undefined°, undefined°

Span
Click to sort rows by Start time (UTC) header in descending order
Start Az.
Max El. time (UTC)
Max El. Az.
Max El.
End time (UTC)
End Az.
7 mins2025-05-09 07:28:44.021Z330.661° NNW2025-05-09 07:31:44.021Z27.253° NE44.846°2025-05-09 07:35:44.021Z147.472° SSE
6 mins2025-05-09 21:48:44.021Z172.891° S2025-05-09 21:51:44.021Z103.293° ESE30.618°2025-05-09 21:54:44.021Z51.437° ENE
5 mins2025-05-09 23:30:44.021Z277.869° WNW2025-05-09 23:32:44.021Z316.242° NNW20.85°2025-05-09 23:35:44.021Z3.083° NNE
|